Date_Time,Julian_Date,Latitude,Longitude,Instrument_Depth,U,V,Speed,Direction
(yyyy-mm-dd hh:mn:ss UTC),(JD),(+ deg. North),(+ deg. East),(m),(cm/s),(cm/s),(cm/s),(deg True)
1978-06-12 23:59:00 UTC,2443672.499306,27.6633,-85.5167,0950,-0.72,-0.43,0.8386,239.1534
1978-06-13 00:59:00 UTC,2443672.540972,27.6633,-85.5167,0950,-0.92,-0.52,1.0568,240.5241
1978-06-13 01:59:00 UTC,2443672.582639,27.6633,-85.5167,0950,-0.91,-0.31,0.9614,251.1881
1978-06-13 02:59:00 UTC,2443672.624306,27.6633,-85.5167,0950,-0.72,-0.06,0.7225,265.2364
1978-06-13 03:59:00 UTC,2443672.665972,27.6633,-85.5167,0950,-0.66,0.12,0.6708,280.3049
1978-06-13 04:59:00 UTC,2443672.707639,27.6633,-85.5167,0950,-0.58,0.37,0.6880,302.5351
1978-06-13 05:59:00 UTC,2443672.749306,27.6633,-85.5167,0950,-0.38,0.60,0.7102,327.6526
1978-06-13 06:59:00 UTC,2443672.790972,27.6633,-85.5167,0950,-0.22,0.80,0.8297,344.6237
1978-06-13 07:59:00 UTC,2443672.832639,27.6633,-85.5167,0950,-0.09,0.97,0.9742,354.6991
1978-06-13 08:59:00 UTC,2443672.874306,27.6633,-85.5167,0950,0.05,0.97,0.9713,2.9508
1978-06-13 09:59:00 UTC,2443672.915972,27.6633,-85.5167,0950,0.11,0.81,0.8174,7.7336
1978-06-13 10:59:00 UTC,2443672.957639,27.6633,-85.5167,0950,0.21,0.58,0.6168,19.9037
1978-06-13 11:59:00 UTC,2443672.999306,27.6633,-85.5167,0950,0.35,0.41,0.5391,40.4860
1978-06-13 12:59:00 UTC,2443673.040972,27.6633,-85.5167,0950,0.28,0.36,0.4561,37.8750
1978-06-13 13:59:00 UTC,2443673.082639,27.6633,-85.5167,0950,0.26,0.44,0.5111,30.5792
1978-06-13 14:59:00 UTC,2443673.124306,27.6633,-85.5167,0950,0.31,0.48,0.5714,32.8557
1978-06-13 15:59:00 UTC,2443673.165972,27.6633,-85.5167,0950,0.26,0.38,0.4604,34.3803
1978-06-13 16:59:00 UTC,2443673.207639,27.6633,-85.5167,0950,0.20,0.42,0.4652,25.4633
1978-06-13 17:59:00 UTC,2443673.249306,27.6633,-85.5167,0950,0.18,0.45,0.4847,21.8014
1978-06-13 18:59:00 UTC,2443673.290972,27.6633,-85.5167,0950,0.08,0.34,0.3493,13.2405
1978-06-13 19:59:00 UTC,2443673.332639,27.6633,-85.5167,0950,0.02,0.28,0.2807,4.0856
1978-06-13 20:59:00 UTC,2443673.374306,27.6633,-85.5167,0950,0.02,0.33,0.3306,3.4682
1978-06-13 21:59:00 UTC,2443673.415972,27.6633,-85.5167,0950,-0.08,0.42,0.4276,349.2157
1978-06-13 22:59:00 UTC,2443673.457639,27.6633,-85.5167,0950,-0.31,0.29,0.4245,313.0909
1978-06-13 23:59:00 UTC,2443673.499306,27.6633,-85.5167,0950,-0.57,-0.08,0.5756,262.0107
1978-06-14 00:59:00 UTC,2443673.540972,27.6633,-85.5167,0950,-0.63,-0.15,0.6476,256.6075
1978-06-14 01:59:00 UTC,2443673.582639,27.6633,-85.5167,0950,-0.60,-0.02,0.6003,268.0909
1978-06-14 02:59:00 UTC,2443673.624306,27.6633,-85.5167,0950,-0.58,0.05,0.5822,274.9271
1978-06-14 03:59:00 UTC,2443673.665972,27.6633,-85.5167,0950,-0.34,0.07,0.3471,281.6336
1978-06-14 04:59:00 UTC,2443673.707639,27.6633,-85.5167,0950,-0.24,0.10,0.2600,292.6199
1978-06-14 05:59:00 UTC,2443673.749306,27.6633,-85.5167,0950,-0.24,0.18,0.3000,306.8699
1978-06-14 06:59:00 UTC,2443673.790972,27.6633,-85.5167,0950,-0.13,0.30,0.3270,336.5713
1978-06-14 07:59:00 UTC,2443673.832639,27.6633,-85.5167,0950,-0.13,0.38,0.4016,341.1139
1978-06-14 08:59:00 UTC,2443673.874306,27.6633,-85.5167,0950,-0.10,0.32,0.3353,342.6460
1978-06-14 09:59:00 UTC,2443673.915972,27.6633,-85.5167,0950,-0.01,0.23,0.2302,357.5104
1978-06-14 10:59:00 UTC,2443673.957639,27.6633,-85.5167,0950,0.03,0.26,0.2617,6.5819
1978-06-14 11:59:00 UTC,2443673.999306,27.6633,-85.5167,0950,0.09,0.31,0.3228,16.1892
1978-06-14 12:59:00 UTC,2443674.040972,27.6633,-85.5167,0950,0.12,0.31,0.3324,21.1613
1978-06-14 13:59:00 UTC,2443674.082639,27.6633,-85.5167,0950,0.16,0.35,0.3848,24.5672
1978-06-14 14:59:00 UTC,2443674.124306,27.6633,-85.5167,0950,0.17,0.34,0.3801,26.5651
1978-06-14 15:59:00 UTC,2443674.165972,27.6633,-85.5167,0950,0.13,0.29,0.3178,24.1455
1978-06-14 16:59:00 UTC,2443674.207639,27.6633,-85.5167,0950,0.09,0.25,0.2657,19.7989
1978-06-14 17:59:00 UTC,2443674.249306,27.6633,-85.5167,0950,0.03,0.18,0.1825,9.4623
1978-06-14 18:59:00 UTC,2443674.290972,27.6633,-85.5167,0950,0.04,0.15,0.1552,14.9314
1978-06-14 19:59:00 UTC,2443674.332639,27.6633,-85.5167,0950,0.07,0.17,0.1838,22.3801
1978-06-14 20:59:00 UTC,2443674.374306,27.6633,-85.5167,0950,-0.19,-0.01,0.1903,266.9872
1978-06-14 21:59:00 UTC,2443674.415972,27.6633,-85.5167,0950,-0.47,-0.17,0.4998,250.1148
1978-06-14 22:59:00 UTC,2443674.457639,27.6633,-85.5167,0950,-0.55,-0.18,0.5787,251.8781
1978-06-14 23:59:00 UTC,2443674.499306,27.6633,-85.5167,0950,-0.65,-0.24,0.6929,249.7343
1978-06-15 00:59:00 UTC,2443674.540972,27.6633,-85.5167,0950,-0.79,-0.37,0.8724,244.9037
1978-06-15 01:59:00 UTC,2443674.582639,27.6633,-85.5167,0950,-0.99,-0.39,1.0640,248.4986
1978-06-15 02:59:00 UTC,2443674.624306,27.6633,-85.5167,0950,-1.06,-0.28,1.0964,255.2032
1978-06-15 03:59:00 UTC,2443674.665972,27.6633,-85.5167,0950,-1.05,-0.19,1.0671,259.7432
1978-06-15 04:59:00 UTC,2443674.707639,27.6633,-85.5167,0950,-1.10,-0.03,1.1004,268.4378
1978-06-15 05:59:00 UTC,2443674.749306,27.6633,-85.5167,0950,-0.88,0.36,0.9508,292.2490
1978-06-15 06:59:00 UTC,2443674.790972,27.6633,-85.5167,0950,-0.57,0.74,0.9341,322.3940
1978-06-15 07:59:00 UTC,2443674.832639,27.6633,-85.5167,0950,-0.29,0.87,0.9171,341.5651
1978-06-15 08:59:00 UTC,2443674.874306,27.6633,-85.5167,0950,0.10,0.80,0.8062,7.1250
1978-06-15 09:59:00 UTC,2443674.915972,27.6633,-85.5167,0950,0.36,0.67,0.7606,28.2497
1978-06-15 10:59:00 UTC,2443674.957639,27.6633,-85.5167,0950,0.40,0.55,0.6801,36.0274
1978-06-15 11:59:00 UTC,2443674.999306,27.6633,-85.5167,0950,0.39,0.46,0.6031,40.2921
1978-06-15 12:59:00 UTC,2443675.040972,27.6633,-85.5167,0950,0.39,0.50,0.6341,37.9542
1978-06-15 13:59:00 UTC,2443675.082639,27.6633,-85.5167,0950,0.30,0.42,0.5161,35.5377
1978-06-15 14:59:00 UTC,2443675.124306,27.6633,-85.5167,0950,0.19,0.28,0.3384,34.1597
1978-06-15 15:59:00 UTC,2443675.165972,27.6633,-85.5167,0950,0.17,0.16,0.2335,46.7357
1978-06-15 16:59:00 UTC,2443675.207639,27.6633,-85.5167,0950,0.22,0.07,0.2309,72.3499
1978-06-15 17:59:00 UTC,2443675.249306,27.6633,-85.5167,0950,0.35,-0.09,0.3614,104.4208
1978-06-15 18:59:00 UTC,2443675.290972,27.6633,-85.5167,0950,0.38,-0.28,0.4720,126.3844
1978-06-15 19:59:00 UTC,2443675.332639,27.6633,-85.5167,0950,0.23,-0.23,0.3253,135.0000
1978-06-15 20:59:00 UTC,2443675.374306,27.6633,-85.5167,0950,0.09,-0.15,0.1749,149.0362
1978-06-15 21:59:00 UTC,2443675.415972,27.6633,-85.5167,0950,0.03,-0.31,0.3114,174.4724
1978-06-15 22:59:00 UTC,2443675.457639,27.6633,-85.5167,0950,-0.06,-0.47,0.4738,187.2750
1978-06-15 23:59:00 UTC,2443675.499306,27.6633,-85.5167,0950,-0.24,-0.53,0.5818,204.3625
1978-06-16 00:59:00 UTC,2443675.540972,27.6633,-85.5167,0950,-0.47,-0.41,0.6237,228.9005
1978-06-16 01:59:00 UTC,2443675.582639,27.6633,-85.5167,0950,-0.67,-0.22,0.7052,251.8220
1978-06-16 02:59:00 UTC,2443675.624306,27.6633,-85.5167,0950,-0.80,-0.19,0.8223,256.6398
1978-06-16 03:59:00 UTC,2443675.665972,27.6633,-85.5167,0950,-0.80,-0.18,0.8200,257.3196
1978-06-16 04:59:00 UTC,2443675.707639,27.6633,-85.5167,0950,-0.77,0.02,0.7703,271.4879
1978-06-16 05:59:00 UTC,2443675.749306,27.6633,-85.5167,0950,-0.75,0.18,0.7713,283.4957
1978-06-16 06:59:00 UTC,2443675.790972,27.6633,-85.5167,0950,-0.54,0.41,0.6780,307.2079
1978-06-16 07:59:00 UTC,2443675.832639,27.6633,-85.5167,0950,-0.23,0.77,0.8036,343.3690
1978-06-16 08:59:00 UTC,2443675.874306,27.6633,-85.5167,0950,-0.11,0.52,0.5315,348.0558
1978-06-16 09:59:00 UTC,2443675.915972,27.6633,-85.5167,0950,-0.06,0.36,0.3650,350.5377
1978-06-16 10:59:00 UTC,2443675.957639,27.6633,-85.5167,0950,0.01,0.71,0.7101,0.8069
1978-06-16 11:59:00 UTC,2443675.999306,27.6633,-85.5167,0950,0.04,0.66,0.6612,3.4682
1978-06-16 12:59:00 UTC,2443676.040972,27.6633,-85.5167,0950,0.12,0.41,0.4272,16.3139
1978-06-16 13:59:00 UTC,2443676.082639,27.6633,-85.5167,0950,0.24,0.19,0.3061,51.6325
1978-06-16 14:59:00 UTC,2443676.124306,27.6633,-85.5167,0950,0.20,0.00,0.2000,90.0000
1978-06-16 15:59:00 UTC,2443676.165972,27.6633,-85.5167,0950,0.16,-0.03,0.1628,100.6197
1978-06-16 16:59:00 UTC,2443676.207639,27.6633,-85.5167,0950,0.25,0.01,0.2502,87.7094
1978-06-16 17:59:00 UTC,2443676.249306,27.6633,-85.5167,0950,0.36,-0.06,0.3650,99.4623
1978-06-16 18:59:00 UTC,2443676.290972,27.6633,-85.5167,0950,0.33,-0.20,0.3859,121.2184
1978-06-16 19:59:00 UTC,2443676.332639,27.6633,-85.5167,0950,0.22,-0.17,0.2780,127.6942
1978-06-16 20:59:00 UTC,2443676.374306,27.6633,-85.5167,0950,0.15,-0.20,0.2500,143.1301
1978-06-16 21:59:00 UTC,2443676.415972,27.6633,-85.5167,0950,0.08,-0.36,0.3688,167.4712
1978-06-16 22:59:00 UTC,2443676.457639,27.6633,-85.5167,0950,0.01,-0.32,0.3202,178.2101
1978-06-16 23:59:00 UTC,2443676.499306,27.6633,-85.5167,0950,-0.09,-0.30,0.3132,196.6992
1978-06-17 00:59:00 UTC,2443676.540972,27.6633,-85.5167,0950,-0.20,-0.30,0.3606,213.6901
1978-06-17 01:59:00 UTC,2443676.582639,27.6633,-85.5167,0950,-0.25,-0.19,0.3140,232.7652
1978-06-17 02:59:00 UTC,2443676.624306,27.6633,-85.5167,0950,-0.30,-0.09,0.3132,253.3008
1978-06-17 03:59:00 UTC,2443676.665972,27.6633,-85.5167,0950,-0.26,-0.02,0.2608,265.6013
1978-06-17 04:59:00 UTC,2443676.707639,27.6633,-85.5167,0950,-0.34,0.07,0.3471,281.6336
1978-06-17 05:59:00 UTC,2443676.749306,27.6633,-85.5167,0950,-0.55,0.34,0.6466,301.7236
1978-06-17 06:59:00 UTC,2443676.790972,27.6633,-85.5167,0950,-0.56,0.65,0.8580,319.2538
1978-06-17 07:59:00 UTC,2443676.832639,27.6633,-85.5167,0950,-0.44,0.73,0.8523,328.9210
1978-06-17 08:59:00 UTC,2443676.874306,27.6633,-85.5167,0950,-0.27,0.70,0.7503,338.9077
1978-06-17 09:59:00 UTC,2443676.915972,27.6633,-85.5167,0950,-0.04,1.10,1.1007,357.9174
1978-06-17 10:59:00 UTC,2443676.957639,27.6633,-85.5167,0950,0.41,1.41,1.4684,16.2134
1978-06-17 11:59:00 UTC,2443676.999306,27.6633,-85.5167,0950,0.63,0.91,1.1068,34.6952
1978-06-17 12:59:00 UTC,2443677.040972,27.6633,-85.5167,0950,0.37,0.46,0.5903,38.8114
1978-06-17 13:59:00 UTC,2443677.082639,27.6633,-85.5167,0950,0.32,0.50,0.5936,32.6192
1978-06-17 14:59:00 UTC,2443677.124306,27.6633,-85.5167,0950,0.27,0.33,0.4264,39.2894
1978-06-17 15:59:00 UTC,2443677.165972,27.6633,-85.5167,0950,0.04,-0.12,0.1265,161.5650
1978-06-17 16:59:00 UTC,2443677.207639,27.6633,-85.5167,0950,-0.02,-0.19,0.1910,186.0090
1978-06-17 17:59:00 UTC,2443677.249306,27.6633,-85.5167,0950,-0.13,-0.15,0.1985,220.9144
1978-06-17 18:59:00 UTC,2443677.290972,27.6633,-85.5167,0950,-0.37,-0.23,0.4357,238.1340
1978-06-17 19:59:00 UTC,2443677.332639,27.6633,-85.5167,0950,-0.56,-0.25,0.6133,245.9427
1978-06-17 20:59:00 UTC,2443677.374306,27.6633,-85.5167,0950,-0.62,-0.03,0.6207,267.2298
1978-06-17 21:59:00 UTC,2443677.415972,27.6633,-85.5167,0950,-0.61,0.21,0.6451,288.9966
1978-06-17 22:59:00 UTC,2443677.457639,27.6633,-85.5167,0950,-0.59,0.33,0.6760,299.2192
1978-06-17 23:59:00 UTC,2443677.499306,27.6633,-85.5167,0950,-0.53,0.54,0.7566,315.5355
1978-06-18 00:59:00 UTC,2443677.540972,27.6633,-85.5167,0950,-0.39,0.52,0.6500,323.1301
1978-06-18 01:59:00 UTC,2443677.582639,27.6633,-85.5167,0950,-0.52,0.46,0.6943,311.4965
1978-06-18 02:59:00 UTC,2443677.624306,27.6633,-85.5167,0950,-0.51,0.53,0.7355,316.1017
1978-06-18 03:59:00 UTC,2443677.665972,27.6633,-85.5167,0950,-0.20,0.26,0.3280,322.4314
1978-06-18 04:59:00 UTC,2443677.707639,27.6633,-85.5167,0950,-0.41,0.35,0.5391,310.4860
1978-06-18 05:59:00 UTC,2443677.749306,27.6633,-85.5167,0950,-0.77,0.78,1.0960,315.3697
1978-06-18 06:59:00 UTC,2443677.790972,27.6633,-85.5167,0950,-0.65,0.91,1.1183,324.4623
1978-06-18 07:59:00 UTC,2443677.832639,27.6633,-85.5167,0950,-0.31,1.03,1.0756,343.2497
1978-06-18 08:59:00 UTC,2443677.874306,27.6633,-85.5167,0950,-0.03,1.13,1.1304,358.4792
1978-06-18 09:59:00 UTC,2443677.915972,27.6633,-85.5167,0950,-0.02,0.90,0.9002,358.7270
1978-06-18 10:59:00 UTC,2443677.957639,27.6633,-85.5167,0950,-0.10,0.61,0.6181,350.6901
1978-06-18 11:59:00 UTC,2443677.999306,27.6633,-85.5167,0950,-0.06,0.58,0.5831,354.0939
1978-06-18 12:59:00 UTC,2443678.040972,27.6633,-85.5167,0950,-0.09,0.59,0.5968,351.3268
1978-06-18 13:59:00 UTC,2443678.082639,27.6633,-85.5167,0950,-0.19,0.35,0.3982,331.5044
1978-06-18 14:59:00 UTC,2443678.124306,27.6633,-85.5167,0950,-0.24,0.15,0.2830,302.0054
1978-06-18 15:59:00 UTC,2443678.165972,27.6633,-85.5167,0950,-0.38,0.05,0.3833,277.4958
1978-06-18 16:59:00 UTC,2443678.207639,27.6633,-85.5167,0950,-0.66,0.02,0.6603,271.7357
1978-06-18 17:59:00 UTC,2443678.249306,27.6633,-85.5167,0950,-0.75,0.16,0.7669,282.0426
1978-06-18 18:59:00 UTC,2443678.290972,27.6633,-85.5167,0950,-0.69,0.36,0.7783,297.5528
1978-06-18 19:59:00 UTC,2443678.332639,27.6633,-85.5167,0950,-0.62,0.42,0.7489,304.1145
1978-06-18 20:59:00 UTC,2443678.374306,27.6633,-85.5167,0950,-0.37,0.30,0.4763,309.0355
1978-06-18 21:59:00 UTC,2443678.415972,27.6633,-85.5167,0950,-0.21,0.22,0.3041,316.3322
1978-06-18 22:59:00 UTC,2443678.457639,27.6633,-85.5167,0950,-0.16,0.19,0.2484,319.8991
1978-06-18 23:59:00 UTC,2443678.499306,27.6633,-85.5167,0950,-0.15,0.24,0.2830,327.9946
1978-06-19 00:59:00 UTC,2443678.540972,27.6633,-85.5167,0950,-0.17,0.47,0.4998,340.1148
1978-06-19 01:59:00 UTC,2443678.582639,27.6633,-85.5167,0950,-0.32,0.76,0.8246,337.1664
1978-06-19 02:59:00 UTC,2443678.624306,27.6633,-85.5167,0950,-0.43,0.77,0.8819,330.8192
1978-06-19 03:59:00 UTC,2443678.665972,27.6633,-85.5167,0950,-0.42,0.90,0.9932,334.9831
1978-06-19 04:59:00 UTC,2443678.707639,27.6633,-85.5167,0950,-0.53,1.24,1.3485,336.8572
1978-06-19 05:59:00 UTC,2443678.749306,27.6633,-85.5167,0950,-0.57,1.27,1.3920,335.8286
1978-06-19 06:59:00 UTC,2443678.790972,27.6633,-85.5167,0950,-0.36,0.98,1.0440,339.8293
1978-06-19 07:59:00 UTC,2443678.832639,27.6633,-85.5167,0950,-0.39,1.15,1.2143,341.2666
1978-06-19 08:59:00 UTC,2443678.874306,27.6633,-85.5167,0950,-0.58,1.35,1.4693,336.7502
1978-06-19 09:59:00 UTC,2443678.915972,27.6633,-85.5167,0950,-0.53,1.24,1.3485,336.8572
1978-06-19 10:59:00 UTC,2443678.957639,27.6633,-85.5167,0950,-0.52,1.15,1.2621,335.6688
1978-06-19 11:59:00 UTC,2443678.999306,27.6633,-85.5167,0950,-0.44,0.96,1.0560,335.3764
1978-06-19 12:59:00 UTC,2443679.040972,27.6633,-85.5167,0950,-0.46,0.94,1.0465,333.9247
1978-06-19 13:59:00 UTC,2443679.082639,27.6633,-85.5167,0950,-0.71,0.95,1.1860,323.2267
1978-06-19 14:59:00 UTC,2443679.124306,27.6633,-85.5167,0950,-0.71,0.68,0.9831,313.7636
1978-06-19 15:59:00 UTC,2443679.165972,27.6633,-85.5167,0950,-0.63,0.63,0.8910,315.0000
1978-06-19 16:59:00 UTC,2443679.207639,27.6633,-85.5167,0950,-0.96,0.84,1.2756,311.1859
1978-06-19 17:59:00 UTC,2443679.249306,27.6633,-85.5167,0950,-1.09,0.75,1.3231,304.5308
1978-06-19 18:59:00 UTC,2443679.290972,27.6633,-85.5167,0950,-1.03,0.86,1.3418,309.8602
1978-06-19 19:59:00 UTC,2443679.332639,27.6633,-85.5167,0950,-1.26,1.12,1.6858,311.6335
1978-06-19 20:59:00 UTC,2443679.374306,27.6633,-85.5167,0950,-1.38,1.04,1.7280,307.0025
1978-06-19 21:59:00 UTC,2443679.415972,27.6633,-85.5167,0950,-1.32,1.21,1.7907,312.5104
1978-06-19 22:59:00 UTC,2443679.457639,27.6633,-85.5167,0950,-1.01,1.70,1.9774,329.2847
1978-06-19 23:59:00 UTC,2443679.499306,27.6633,-85.5167,0950,-0.87,1.88,2.0715,335.1669
1978-06-20 00:59:00 UTC,2443679.540972,27.6633,-85.5167,0950,-0.74,1.78,1.9277,337.4259
1978-06-20 01:59:00 UTC,2443679.582639,27.6633,-85.5167,0950,-0.48,1.74,1.8050,344.5779
1978-06-20 02:59:00 UTC,2443679.624306,27.6633,-85.5167,0950,-0.63,1.64,1.7568,338.9859
1978-06-20 03:59:00 UTC,2443679.665972,27.6633,-85.5167,0950,-0.78,1.37,1.5765,330.3453
1978-06-20 04:59:00 UTC,2443679.707639,27.6633,-85.5167,0950,-0.72,1.22,1.4166,329.4524
1978-06-20 05:59:00 UTC,2443679.749306,27.6633,-85.5167,0950,-0.64,1.20,1.3600,331.9275
1978-06-20 06:59:00 UTC,2443679.790972,27.6633,-85.5167,0950,-0.58,1.08,1.2259,331.7625
1978-06-20 07:59:00 UTC,2443679.832639,27.6633,-85.5167,0950,-0.67,0.92,1.1381,323.9356
1978-06-20 08:59:00 UTC,2443679.874306,27.6633,-85.5167,0950,-0.57,1.15,1.2835,333.6346
1978-06-20 09:59:00 UTC,2443679.915972,27.6633,-85.5167,0950,-0.47,1.29,1.3730,339.9812
1978-06-20 10:59:00 UTC,2443679.957639,27.6633,-85.5167,0950,-0.31,0.75,0.8115,337.5431
1978-06-20 11:59:00 UTC,2443679.999306,27.6633,-85.5167,0950,-0.30,0.88,0.9297,341.1753
1978-06-20 12:59:00 UTC,2443680.040972,27.6633,-85.5167,0950,-0.49,1.30,1.3893,339.3474
1978-06-20 13:59:00 UTC,2443680.082639,27.6633,-85.5167,0950,-0.63,1.26,1.4087,333.4349
1978-06-20 14:59:00 UTC,2443680.124306,27.6633,-85.5167,0950,-0.77,1.24,1.4596,328.1610
1978-06-20 15:59:00 UTC,2443680.165972,27.6633,-85.5167,0950,-0.83,1.30,1.5424,327.4433
1978-06-20 16:59:00 UTC,2443680.207639,27.6633,-85.5167,0950,-0.90,1.35,1.6225,326.3099
1978-06-20 17:59:00 UTC,2443680.249306,27.6633,-85.5167,0950,-0.97,1.28,1.6060,322.8447
1978-06-20 18:59:00 UTC,2443680.290972,27.6633,-85.5167,0950,-1.09,1.18,1.6064,317.2704
1978-06-20 19:59:00 UTC,2443680.332639,27.6633,-85.5167,0950,-1.13,1.19,1.6410,316.4814
1978-06-20 20:59:00 UTC,2443680.374306,27.6633,-85.5167,0950,-1.11,1.24,1.6642,318.1663
1978-06-20 21:59:00 UTC,2443680.415972,27.6633,-85.5167,0950,-1.13,1.26,1.6925,318.1134
1978-06-20 22:59:00 UTC,2443680.457639,27.6633,-85.5167,0950,-0.81,1.23,1.4728,326.6336
1978-06-20 23:59:00 UTC,2443680.499306,27.6633,-85.5167,0950,-0.79,1.44,1.6425,331.2503
1978-06-21 00:59:00 UTC,2443680.540972,27.6633,-85.5167,0950,-0.71,1.74,1.8793,337.8023
1978-06-21 01:59:00 UTC,2443680.582639,27.6633,-85.5167,0950,-0.46,1.85,1.9063,346.0367
1978-06-21 02:59:00 UTC,2443680.624306,27.6633,-85.5167,0950,-0.69,1.80,1.9277,339.0265
1978-06-21 03:59:00 UTC,2443680.665972,27.6633,-85.5167,0950,-0.86,1.74,1.9409,333.6990
1978-06-21 04:59:00 UTC,2443680.707639,27.6633,-85.5167,0950,-0.87,1.65,1.8653,332.1985
1978-06-21 05:59:00 UTC,2443680.749306,27.6633,-85.5167,0950,-0.70,1.04,1.2536,326.0564
1978-06-21 06:59:00 UTC,2443680.790972,27.6633,-85.5167,0950,-0.66,1.03,1.2233,327.3492
1978-06-21 07:59:00 UTC,2443680.832639,27.6633,-85.5167,0950,-0.99,1.65,1.9242,329.0363
1978-06-21 08:59:00 UTC,2443680.874306,27.6633,-85.5167,0950,-0.82,1.55,1.7535,332.1197
1978-06-21 09:59:00 UTC,2443680.915972,27.6633,-85.5167,0950,-0.45,0.99,1.0875,335.5560
1978-06-21 10:59:00 UTC,2443680.957639,27.6633,-85.5167,0950,-0.27,0.57,0.6307,334.6538
1978-06-21 11:59:00 UTC,2443680.999306,27.6633,-85.5167,0950,-0.15,0.50,0.5220,343.3008
1978-06-21 12:59:00 UTC,2443681.040972,27.6633,-85.5167,0950,-0.41,0.80,0.8989,332.8649
1978-06-21 13:59:00 UTC,2443681.082639,27.6633,-85.5167,0950,-0.66,0.78,1.0218,319.7636
1978-06-21 14:59:00 UTC,2443681.124306,27.6633,-85.5167,0950,-0.67,0.78,1.0283,319.3383
1978-06-21 15:59:00 UTC,2443681.165972,27.6633,-85.5167,0950,-0.63,1.02,1.1989,328.2986
1978-06-21 16:59:00 UTC,2443681.207639,27.6633,-85.5167,0950,-0.62,0.93,1.1177,326.3099
1978-06-21 17:59:00 UTC,2443681.249306,27.6633,-85.5167,0950,-0.73,0.67,0.9909,312.5460
1978-06-21 18:59:00 UTC,2443681.290972,27.6633,-85.5167,0950,-0.90,0.50,1.0296,299.0546
1978-06-21 19:59:00 UTC,2443681.332639,27.6633,-85.5167,0950,-1.17,0.56,1.2971,295.5773
1978-06-21 20:59:00 UTC,2443681.374306,27.6633,-85.5167,0950,-1.08,0.79,1.3381,306.1848
1978-06-21 21:59:00 UTC,2443681.415972,27.6633,-85.5167,0950,-0.71,0.91,1.1542,322.0379
1978-06-21 22:59:00 UTC,2443681.457639,27.6633,-85.5167,0950,-0.54,0.88,1.0325,328.4652
1978-06-21 23:59:00 UTC,2443681.499306,27.6633,-85.5167,0950,-0.27,0.92,0.9588,343.6442
1978-06-22 00:59:00 UTC,2443681.540972,27.6633,-85.5167,0950,-0.02,0.95,0.9502,358.7939
1978-06-22 01:59:00 UTC,2443681.582639,27.6633,-85.5167,0950,-0.10,0.86,0.8658,353.3675
1978-06-22 02:59:00 UTC,2443681.624306,27.6633,-85.5167,0950,-0.20,1.09,1.1082,349.6027
1978-06-22 03:59:00 UTC,2443681.665972,27.6633,-85.5167,0950,-0.28,1.37,1.3983,348.4490
1978-06-22 04:59:00 UTC,2443681.707639,27.6633,-85.5167,0950,-0.53,1.45,1.5438,339.9218
1978-06-22 05:59:00 UTC,2443681.749306,27.6633,-85.5167,0950,-0.65,1.48,1.6164,336.2894
1978-06-22 06:59:00 UTC,2443681.790972,27.6633,-85.5167,0950,-0.53,1.31,1.4132,337.9727
1978-06-22 07:59:00 UTC,2443681.832639,27.6633,-85.5167,0950,-0.42,0.87,0.9661,334.2307
1978-06-22 08:59:00 UTC,2443681.874306,27.6633,-85.5167,0950,-0.47,0.72,0.8598,326.8644
1978-06-22 09:59:00 UTC,2443681.915972,27.6633,-85.5167,0950,-0.45,0.64,0.7824,324.8880
1978-06-22 10:59:00 UTC,2443681.957639,27.6633,-85.5167,0950,-0.33,0.47,0.5743,324.9262
1978-06-22 11:59:00 UTC,2443681.999306,27.6633,-85.5167,0950,-0.45,0.48,0.6580,316.8476
1978-06-22 12:59:00 UTC,2443682.040972,27.6633,-85.5167,0950,-0.57,0.62,0.8422,317.4060
1978-06-22 13:59:00 UTC,2443682.082639,27.6633,-85.5167,0950,-0.51,0.73,0.8905,325.0607
1978-06-22 14:59:00 UTC,2443682.124306,27.6633,-85.5167,0950,-0.43,0.56,0.7060,322.4809
1978-06-22 15:59:00 UTC,2443682.165972,27.6633,-85.5167,0950,-0.45,0.31,0.5464,304.5625
1978-06-22 16:59:00 UTC,2443682.207639,27.6633,-85.5167,0950,-0.66,0.25,0.7058,290.7461
1978-06-22 17:59:00 UTC,2443682.249306,27.6633,-85.5167,0950,-0.77,0.21,0.7981,285.2551
1978-06-22 18:59:00 UTC,2443682.290972,27.6633,-85.5167,0950,-0.68,0.24,0.7211,289.4400
1978-06-22 19:59:00 UTC,2443682.332639,27.6633,-85.5167,0950,-0.69,0.43,0.8130,301.9307
1978-06-22 20:59:00 UTC,2443682.374306,27.6633,-85.5167,0950,-0.66,0.51,0.8341,307.6942
1978-06-22 21:59:00 UTC,2443682.415972,27.6633,-85.5167,0950,-0.49,0.42,0.6454,310.6013
1978-06-22 22:59:00 UTC,2443682.457639,27.6633,-85.5167,0950,-0.41,0.46,0.6162,318.2892
1978-06-22 23:59:00 UTC,2443682.499306,27.6633,-85.5167,0950,-0.32,0.62,0.6977,332.7004
1978-06-23 00:59:00 UTC,2443682.540972,27.6633,-85.5167,0950,-0.14,0.64,0.6551,347.6609
1978-06-23 01:59:00 UTC,2443682.582639,27.6633,-85.5167,0950,-0.04,0.54,0.5415,355.7636
1978-06-23 02:59:00 UTC,2443682.624306,27.6633,-85.5167,0950,-0.11,0.39,0.4052,344.2488
1978-06-23 03:59:00 UTC,2443682.665972,27.6633,-85.5167,0950,-0.18,0.33,0.3759,331.3895
1978-06-23 04:59:00 UTC,2443682.707639,27.6633,-85.5167,0950,-0.29,0.41,0.5022,324.7276
1978-06-23 05:59:00 UTC,2443682.749306,27.6633,-85.5167,0950,-0.37,0.44,0.5749,319.9392
1978-06-23 06:59:00 UTC,2443682.790972,27.6633,-85.5167,0950,-0.36,0.39,0.5308,317.2906
1978-06-23 07:59:00 UTC,2443682.832639,27.6633,-85.5167,0950,-0.51,0.33,0.6075,302.9052
1978-06-23 08:59:00 UTC,2443682.874306,27.6633,-85.5167,0950,-0.64,0.27,0.6946,292.8737
1978-06-23 09:59:00 UTC,2443682.915972,27.6633,-85.5167,0950,-0.63,0.33,0.7112,297.6460
1978-06-23 10:59:00 UTC,2443682.957639,27.6633,-85.5167,0950,-0.62,0.45,0.7661,305.9724
1978-06-23 11:59:00 UTC,2443682.999306,27.6633,-85.5167,0950,-0.49,0.57,0.7517,319.3160
1978-06-23 12:59:00 UTC,2443683.040972,27.6633,-85.5167,0950,-0.39,0.63,0.7409,328.2405
1978-06-23 13:59:00 UTC,2443683.082639,27.6633,-85.5167,0950,-0.49,0.54,0.7292,317.7792
1978-06-23 14:59:00 UTC,2443683.124306,27.6633,-85.5167,0950,-0.57,0.38,0.6851,303.6901
1978-06-23 15:59:00 UTC,2443683.165972,27.6633,-85.5167,0950,-0.35,0.15,0.3808,293.1986
1978-06-23 16:59:00 UTC,2443683.207639,27.6633,-85.5167,0950,-0.32,0.15,0.3534,295.1148
1978-06-23 17:59:00 UTC,2443683.249306,27.6633,-85.5167,0950,-0.57,0.16,0.5920,285.6795
1978-06-23 18:59:00 UTC,2443683.290972,27.6633,-85.5167,0950,-0.76,0.03,0.7606,272.2605
1978-06-23 19:59:00 UTC,2443683.332639,27.6633,-85.5167,0950,-0.90,-0.05,0.9014,266.8202
1978-06-23 20:59:00 UTC,2443683.374306,27.6633,-85.5167,0950,-1.01,-0.02,1.0102,268.8656
1978-06-23 21:59:00 UTC,2443683.415972,27.6633,-85.5167,0950,-0.97,0.18,0.9866,280.5126
1978-06-23 22:59:00 UTC,2443683.457639,27.6633,-85.5167,0950,-0.80,0.38,0.8857,295.4077
1978-06-23 23:59:00 UTC,2443683.499306,27.6633,-85.5167,0950,-0.66,0.49,0.8220,306.5911
1978-06-24 00:59:00 UTC,2443683.540972,27.6633,-85.5167,0950,-0.60,0.53,0.8006,311.4552
1978-06-24 01:59:00 UTC,2443683.582639,27.6633,-85.5167,0950,-0.46,0.61,0.7640,322.9801
1978-06-24 02:59:00 UTC,2443683.624306,27.6633,-85.5167,0950,-0.27,0.60,0.6580,335.7722
1978-06-24 03:59:00 UTC,2443683.665972,27.6633,-85.5167,0950,-0.18,0.52,0.5503,340.9065
1978-06-24 04:59:00 UTC,2443683.707639,27.6633,-85.5167,0950,-0.07,0.37,0.3766,349.2869
1978-06-24 05:59:00 UTC,2443683.749306,27.6633,-85.5167,0950,-0.01,0.37,0.3701,358.4518